Regional Weather Roundup
Issued by NWS

Home | Current Version | Previous Version | Text Only | Print | Product List | Glossary On
Versions: 1 2 3 4 5 6 7 8 9 10 11 12 13 14 15 16 17 18 19 20 21 22 23 24 25 26 27
000
ASUS45 KPSR 192210
RWRAZ

ARIZONA HOURLY REGIONAL WEATHER ROUNDUP
NATIONAL WEATHER SERVICE PHOENIX AZ
300 PM MST THU JAN 19 2017

NOTE: FAIR INDICATES FEW OR NO CLOUDS BELOW 12,000 FEET WITH NO
SIGNIFICANT WEATHER AND/OR OBSTRUCTIONS TO VISIBILITY.

AZZ001>003-036-192300-
NORTHWEST ARIZONA

CITY           SKY/WX    TMP DP  RH WIND       PRES   REMARKS
BULLHEAD CITY  CLOUDY    55  48  76 S15       29.84S
KINGMAN        LGT RAIN  42  37  82 S18       29.82F
$$

AZZ004>008-015-016-018-192300-
NORTH CENTRAL ARIZONA

CITY           SKY/WX    TMP DP  RH WIND       PRES   REMARKS
GRAND CANYON   SNOW      32  32 100 SW10      29.80S VSB 1/2 WCI  24
WILLIAMS       LGT SNOW  34  30  86 S16G24    29.80F WCI  23
PRESCOTT       LGT SNOW  36  35  96 S8        29.85S WCI  30
FLAGSTAFF      LGT SNOW  31  29  92 SW16      29.80F FOG     WCI  20
PAYSON         CLOUDY    37  36  93 VRB6      29.90F FOG     WCI  33
PAGE           CLOUDY    41  32  70 E3        29.75F
$$

AZZ009>014-017-192300-
NORTHEAST ARIZONA

CITY           SKY/WX    TMP DP  RH WIND       PRES   REMARKS
WINSLOW        CLOUDY    47  34  60 SW14      29.81F
SAINT JOHNS    CLOUDY    42  34  73 SW9       29.85S
SHOW LOW       CLOUDY    34  30  86 SW13      29.88F WCI  25
$$

AZZ023-192300-
GREATER PHOENIX AREA

CITY           SKY/WX    TMP DP  RH WIND       PRES   REMARKS
PHOENIX        LGT RAIN  56  43  61 SE9       29.88F
BUCKEYE        MOSUNNY   57  45  62 E7        29.89F
GLENDALE       CLOUDY    55  45  67 CALM      29.92S
LUKE AFB       DRIZZLE   55  46  70 E8        29.87F
DEER VALLEY    LGT RAIN  53  41  63 SE7       29.90S
SCOTTSDALE     LGT RAIN  54  39  57 SE7       29.90F
MESA-GATEWAY   CLOUDY    55  43  62 SE9       29.90F
CHANDLER       PTSUNNY   57  43  58 E9        29.89F
$$

AZZ027-028-192300-
SOUTHWEST MARICOPA COUNTY AND PINAL COUNTY

CITY           SKY/WX    TMP DP  RH WIND       PRES   REMARKS
CASA GRANDE    PTSUNNY   57  42  57 E6        29.90F
$$

AZZ503-504-507>509-192300-
SOUTHEAST ARIZONA

CITY           SKY/WX    TMP DP  RH WIND       PRES   REMARKS
TUCSON         CLOUDY    58  31  35 SE3       29.92F
DAVIS-MONTHAN  PTSUNNY   57  33  39 VRB5      29.91F
RYAN FIELD     CLOUDY   N/A N/A N/A E9        29.92F
NOGALES        CLOUDY    56  30  37 S10       29.93F
SIERRA VISTA   PTSUNNY   55  30  37 W15       29.94F
DOUGLAS        CLOUDY    54  26  34 VRB5      29.95S
SAFFORD        CLOUDY    50  38  63 NW7       29.91F
$$

AZZ020-021-025-026-031-192300-
SOUTHWEST ARIZONA

CITY           SKY/WX    TMP DP  RH WIND       PRES   REMARKS
YUMA           PTSUNNY   68  46  45 SW16      29.84F
$$

CAZ031-033-041-043-047-048-061-192300-
SOUTHERN CALIFORNIA

CITY           SKY/WX    TMP DP  RH WIND       PRES   REMARKS
DOWNTOWN L.A.  SUNNY     63  46  54 W12       29.88F
L.A. AIRPORT   MOSUNNY   61  49  64 W22       29.89F
SAN DIEGO      PTSUNNY   64  51  62 W12G21    29.98S
BURBANK        PTSUNNY   60  40  47 W16       29.87F
ONTARIO        PTSUNNY   58  45  62 SW16      29.88F
RIVERSIDE      MOSUNNY   59  50  72 SW13      29.89F
PALM SPRINGS   MOSUNNY   55  51  86 CALM      29.85F
EL CENTRO NAS  PTSUNNY   64  53  67 CALM      29.86F
IMPERIAL       MOSUNNY   64  52  64 VRB3      29.84F
BLYTHE         CLOUDY    61  51  70 S18       29.84F
NEEDLES        LGT RAIN  54  49  83 E3        29.84F
$$

NVZ020-UTZ003-192300-
SOUTHERN NEVADA-UTAH

CITY           SKY/WX    TMP DP  RH WIND       PRES   REMARKS
LAS VEGAS      PTSUNNY   54  35  48 S14G22    29.73S
SALT LAKE CITY LGT SNOW  35  33  92 SE3       29.72F FOG
$$

NMZ009-TXZ055-192300-
NEW MEXICO-WEST TEXAS

CITY           SKY/WX    TMP DP  RH WIND       PRES   REMARKS
ALBUQUERQUE    CLOUDY    49  26  41 W12       29.78F
EL PASO        CLOUDY    55  28  35 W20G25    29.86F
$$


........................KEY........................
SKY/WX - SKY CONDITION/WEATHER
TMP    - TEMPERATURE IN FAHRENHEIT
DP     - DEW POINT IN FAHRENHEIT
RH     - RELATIVE HUMIDITY IN PERCENT
WIND   - DIRECTION AND SPEED IN MILES PER HOUR (MPH)
VRB    - VARIABLE WIND DIRECTION
PRES   - MEAN SEA LEVEL PRESSURE IN INCHES OF MERCURY
         F - FALLING PRESSURE   R - RISING PRESSURE
         S - STEADY PRESSURE
VSB    - VISIBILITY IN MILES
HX     - HEAT INDEX IN FAHRENHEIT
WCI    - WIND CHILL INDEX IN FAHRENHEIT
TC     - TEMPERATURE IN CELSIUS WHICH IS ALSO KNOWN AS
         TEMPERATURE IN CENTIGRADE
AFB    - AIR FORCE BASE
         LUKE AFB IS LUKE AIR FORCE BASE
         DAVIS-MONTHAN IS DAVIS-MONTHAN AIR FORCE BASE
NAS    - NAVAL AIR STATION
         EL CENTRO NAS IS EL CENTRO NAVAL AIR STATION
N/A    - NOT AVAILABLE





USA.gov is the U.S. government's official web portal to all federal, state and local government web resources and services.